When you browse on this site, cookies collect data to enhance your experience and personalize the content and advertising you see.
Visit our Privacy Policy to learn more. By continuing to use the site, you agree to this use of cookies and data.
  • In Österreich
  • Länderverzeichnis
  • Für 7 Tage
  • Wassertemperatur
  • Satellitenkarten
  • Wetterkarte
  • News
  • Widgets
  • user-avatar
    Anmelden

    Stündliche Wetter Dangriga

    Heute, 27 Juni, Donnerstag

    Zeit Temperatur Niederschläge Wind Luftdruck Luftfeuchtigkeit
    00:00 +26°C° 0.3 mm 5 m/S 760 mmHg 98%
    01:00 +26°C° 0.4 mm 5 m/S 760 mmHg 98%
    02:00 +26°C° 0.4 mm 5 m/S 759 mmHg 98%
    03:00 +26°C° 0.4 mm 5 m/S 759 mmHg 98%
    04:00 +26°C° 0.8 mm 5 m/S 759 mmHg 98%
    05:00 +26°C° 0.8 mm 5 m/S 759 mmHg 98%
    06:00 +26°C° 0.8 mm 4 m/S 760 mmHg 98%
    07:00 +27°C° 1.3 mm 4 m/S 760 mmHg 97%
    08:00 +28°C° 1.3 mm 4 m/S 760 mmHg 96%
    09:00 +28°C° 1.3 mm 4 m/S 760 mmHg 95%
    10:00 +29°C° 2.4 mm 5 m/S 760 mmHg 94%
    11:00 +29°C° 2.4 mm 5 m/S 760 mmHg 92%
    12:00 +29°C° 2.4 mm 5 m/S 760 mmHg 91%
    13:00 +30°C° 1.8 mm 5 m/S 760 mmHg 84%
    14:00 +32°C° 1.8 mm 5 m/S 760 mmHg 78%
    15:00 +32°C° 1.8 mm 5 m/S 759 mmHg 71%
    16:00 +30°C° 0.4 mm 5 m/S 759 mmHg 78%
    17:00 +29°C° 0.4 mm 6 m/S 759 mmHg 86%
    18:00 +28°C° 0.4 mm 6 m/S 759 mmHg 93%
    19:00 +28°C° 0.1 mm 6 m/S 760 mmHg 95%
    20:00 +27°C° 0.1 mm 5 m/S 760 mmHg 97%
    21:00 +26°C° 0.1 mm 5 m/S 760 mmHg 98%
    22:00 +26°C° 0.6 mm 5 m/S 760 mmHg 98%
    23:00 +26°C° 0.6 mm 5 m/S 760 mmHg 98%

    Morgen, 28 Juni, Freitag

    Zeit Temperatur Niederschläge Wind Luftdruck Luftfeuchtigkeit
    00:00 +26°C° 0.6 mm 4 m/S 760 mmHg 98%
    01:00 +26°C° 0.4 mm 4 m/S 760 mmHg 98%
    02:00 +26°C° 0.4 mm 4 m/S 760 mmHg 98%
    03:00 +26°C° 0.4 mm 4 m/S 759 mmHg 98%
    04:00 +26°C° 1 mm 3 m/S 759 mmHg 98%
    05:00 +26°C° 1 mm 3 m/S 760 mmHg 98%
    06:00 +26°C° 1 mm 3 m/S 760 mmHg 98%
    07:00 +28°C° 0.3 mm 3 m/S 760 mmHg 92%
    08:00 +29°C° 0.3 mm 3 m/S 760 mmHg 85%
    09:00 +31°C° 0.3 mm 3 m/S 761 mmHg 78%
    10:00 +31°C° 0.9 mm 3 m/S 760 mmHg 80%
    11:00 +31°C° 0.9 mm 3 m/S 760 mmHg 82%
    12:00 +32°C° 0.9 mm 4 m/S 760 mmHg 83%
    13:00 +32°C° 0.7 mm 4 m/S 760 mmHg 82%
    14:00 +32°C° 0.7 mm 4 m/S 759 mmHg 80%
    15:00 +32°C° 0.7 mm 4 m/S 759 mmHg 78%
    16:00 +30°C° 0.1 mm 4 m/S 759 mmHg 81%
    17:00 +29°C° 0.1 mm 4 m/S 759 mmHg 85%
    18:00 +28°C° 0.1 mm 4 m/S 759 mmHg 88%
    19:00 +28°C° 0 mm 4 m/S 759 mmHg 91%
    20:00 +27°C° 0 mm 4 m/S 760 mmHg 95%
    21:00 +26°C° 0 mm 4 m/S 760 mmHg 98%
    22:00 +26°C° 0.2 mm 4 m/S 760 mmHg 98%
    23:00 +26°C° 0.2 mm 3 m/S 760 mmHg 98%

    übermorgen, 29 Juni, Samstag

    Zeit Temperatur Niederschläge Wind Luftdruck Luftfeuchtigkeit
    00:00 +26°C° 0.2 mm 3 m/S 760 mmHg 98%
    01:00 +26°C° 0.3 mm 3 m/S 760 mmHg 98%
    02:00 +26°C° 0.3 mm 3 m/S 759 mmHg 98%
    03:00 +25°C° 0.3 mm 2 m/S 759 mmHg 98%
    04:00 +25°C° 1 mm 3 m/S 759 mmHg 98%
    05:00 +25°C° 1 mm 3 m/S 759 mmHg 98%
    06:00 +25°C° 1 mm 3 m/S 759 mmHg 98%
    07:00 +26°C° 1.4 mm 3 m/S 760 mmHg 96%
    08:00 +27°C° 1.4 mm 3 m/S 760 mmHg 94%
    09:00 +28°C° 1.4 mm 3 m/S 761 mmHg 92%
    10:00 +29°C° 1.3 mm 3 m/S 761 mmHg 85%
    11:00 +30°C° 1.3 mm 3 m/S 761 mmHg 78%
    12:00 +31°C° 1.3 mm 3 m/S 760 mmHg 71%
    13:00 +31°C° 0.5 mm 3 m/S 760 mmHg 66%
    14:00 +33°C° 0.5 mm 3 m/S 760 mmHg 62%
    15:00 +33°C° 0.5 mm 3 m/S 759 mmHg 57%
    16:00 +32°C° 0 mm 4 m/S 759 mmHg 65%
    17:00 +29°C° 0 mm 4 m/S 759 mmHg 74%
    18:00 +28°C° 0 mm 4 m/S 759 mmHg 82%
    19:00 +27°C° 0.4 mm 4 m/S 759 mmHg 85%
    20:00 +26°C° 0.4 mm 4 m/S 760 mmHg 88%
    21:00 +26°C° 0.4 mm 4 m/S 760 mmHg 92%
    22:00 +25°C° 1.1 mm 4 m/S 760 mmHg 93%
    23:00 +25°C° 1.1 mm 4 m/S 760 mmHg 95%

    30 Juni, Sonntag

    Zeit Temperatur Niederschläge Wind Luftdruck Luftfeuchtigkeit
    00:00 +25°C° 1.1 mm 4 m/S 760 mmHg 97%
    01:00 +25°C° 2.1 mm 4 m/S 760 mmHg 98%
    02:00 +25°C° 2.1 mm 4 m/S 759 mmHg 98%
    03:00 +25°C° 2.1 mm 4 m/S 759 mmHg 99%
    04:00 +25°C° 1.5 mm 4 m/S 759 mmHg 99%
    05:00 +26°C° 1.5 mm 4 m/S 759 mmHg 99%
    06:00 +26°C° 1.5 mm 4 m/S 759 mmHg 99%
    07:00 +26°C° 0.8 mm 3 m/S 760 mmHg 98%
    08:00 +26°C° 0.8 mm 2 m/S 760 mmHg 96%
    09:00 +27°C° 0.8 mm 2 m/S 761 mmHg 95%
    10:00 +27°C° 0.6 mm 3 m/S 761 mmHg 95%
    11:00 +28°C° 0.6 mm 3 m/S 760 mmHg 96%
    12:00 +28°C° 0.6 mm 4 m/S 760 mmHg 96%
    13:00 +28°C° 1 mm 4 m/S 760 mmHg 94%
    14:00 +29°C° 1 mm 5 m/S 759 mmHg 92%
    15:00 +29°C° 1 mm 5 m/S 759 mmHg 89%
    16:00 +28°C° 2.1 mm 5 m/S 759 mmHg 92%
    17:00 +27°C° 2.1 mm 6 m/S 759 mmHg 95%
    18:00 +27°C° 2.1 mm 6 m/S 759 mmHg 98%
    19:00 +27°C° 1.5 mm 6 m/S 760 mmHg 98%
    20:00 +26°C° 1.5 mm 7 m/S 760 mmHg 99%
    21:00 +26°C° 1.5 mm 7 m/S 761 mmHg 99%
    22:00 +26°C° 1 mm 7 m/S 761 mmHg 99%
    23:00 +26°C° 1 mm 6 m/S 760 mmHg 99%

    1 Juli, Montag

    Zeit Temperatur Niederschläge Wind Luftdruck Luftfeuchtigkeit
    00:00 +26°C° 1 mm 6 m/S 760 mmHg 99%
    01:00 +26°C° 2.5 mm 6 m/S 760 mmHg 99%
    02:00 +26°C° 2.5 mm 6 m/S 760 mmHg 99%
    03:00 +26°C° 2.5 mm 5 m/S 760 mmHg 99%
    04:00 +26°C° 1.7 mm 5 m/S 760 mmHg 99%
    05:00 +26°C° 1.7 mm 6 m/S 760 mmHg 99%
    06:00 +26°C° 1.7 mm 6 m/S 760 mmHg 99%
    07:00 +27°C° 0.6 mm 6 m/S 761 mmHg 97%
    08:00 +28°C° 0.6 mm 6 m/S 761 mmHg 96%
    09:00 +29°C° 0.6 mm 6 m/S 761 mmHg 95%
    10:00 +29°C° 0.4 mm 6 m/S 761 mmHg 91%
    11:00 +30°C° 0.4 mm 5 m/S 761 mmHg 88%
    12:00 +30°C° 0.4 mm 5 m/S 761 mmHg 85%
    13:00 +32°C° 0.6 mm 5 m/S 760 mmHg 81%
    14:00 +32°C° 0.6 mm 6 m/S 760 mmHg 78%
    15:00 +32°C° 0.6 mm 6 m/S 759 mmHg 74%
    16:00 +30°C° 0.3 mm 6 m/S 759 mmHg 81%
    17:00 +29°C° 0.3 mm 6 m/S 760 mmHg 88%
    18:00 +28°C° 0.3 mm 6 m/S 760 mmHg 94%
    19:00 +27°C° 0.3 mm 6 m/S 760 mmHg 96%
    20:00 +27°C° 0.3 mm 6 m/S 760 mmHg 97%
    21:00 +26°C° 0.3 mm 6 m/S 761 mmHg 99%
    22:00 +26°C° 0.4 mm 5 m/S 761 mmHg 99%
    23:00 +26°C° 0.4 mm 5 m/S 760 mmHg 99%

    2 Juli, Dienstag

    Zeit Temperatur Niederschläge Wind Luftdruck Luftfeuchtigkeit
    00:00 +26°C° 0.4 mm 5 m/S 760 mmHg 99%
    01:00 +26°C° 0.6 mm 5 m/S 760 mmHg 99%
    02:00 +26°C° 0.6 mm 5 m/S 760 mmHg 99%
    03:00 +26°C° 0.6 mm 5 m/S 759 mmHg 98%
    04:00 +26°C° 0.1 mm 5 m/S 759 mmHg 98%
    05:00 +26°C° 0.1 mm 5 m/S 760 mmHg 98%
    06:00 +26°C° 0.1 mm 5 m/S 760 mmHg 98%
    07:00 +27°C° 0.1 mm 5 m/S 760 mmHg 95%
    08:00 +28°C° 0.1 mm 5 m/S 761 mmHg 92%
    09:00 +30°C° 0.1 mm 5 m/S 761 mmHg 89%
    10:00 +32°C° 0.1 mm 5 m/S 761 mmHg 79%
    11:00 +33°C° 0.1 mm 5 m/S 761 mmHg 69%
    12:00 +35°C° 0.1 mm 5 m/S 761 mmHg 58%
    13:00 +34°C° 0 mm 5 m/S 760 mmHg 59%
    14:00 +34°C° 0 mm 5 m/S 760 mmHg 59%
    15:00 +34°C° 0 mm 5 m/S 759 mmHg 59%
    16:00 +33°C° 0.1 mm 5 m/S 759 mmHg 69%
    17:00 +30°C° 0.1 mm 5 m/S 759 mmHg 79%
    18:00 +29°C° 0.1 mm 5 m/S 759 mmHg 89%
    19:00 +28°C° 0.1 mm 5 m/S 759 mmHg 92%
    20:00 +27°C° 0.1 mm 5 m/S 759 mmHg 95%
    21:00 +27°C° 0.1 mm 5 m/S 760 mmHg 99%
    22:00 +26°C° 0.1 mm 6 m/S 760 mmHg 99%
    23:00 +26°C° 0.1 mm 6 m/S 760 mmHg 98%
    Mehr zeigen